Cambridge, United Kingdom

6:15 AM BST on May 23, 2017 (GMT +0100)
Cambridge

Weather History for EGSC - May, 2017

Change the Weather History Date:

Friday, May 19, 2017

  Actual Average Record
Temperature  
Mean Temperature 50 °F -  
Max Temperature 53 °F 63 °F 75 °F (2014)
Min Temperature 48 °F 52 °F 32 °F (2001)
Degree Days  
Heating Degree Days 14    
Moisture  
Dew Point 47 °F    
Average Humidity 83    
Maximum Humidity 94    
Minimum Humidity 72    
Precipitation  
Precipitation 0.00 in - - ()
Sea Level Pressure  
Sea Level Pressure 29.86 in    
Wind  
Wind Speed 8 mph ()    
Max Wind Speed 14 mph    
Max Gust Speed -    
Visibility 6.2 miles    
Events Rain    
Averages and records for this station are not official NWS values.
T = Trace of Precipitation, MM = Missing Value Source: Averaged Metar Reports

Daily Weather History Graph

Daily Weather History Graph

Search for Another Location

Airport or City:

Trip Planner

Search our weather history database for the weather conditions in past years. The results will help you decide how hot, cold, wet, or windy it might be!

Date:

Astronomy

May. 19, 2017 Rise Set
Actual Time 4:58 AM BST 8:53 PM BST
Civil Twilight 4:15 AM BST 9:37 PM BST
Nautical Twilight 3:13 AM BST 10:39 PM BST
Astronomical Twilight 1:06 AM BST 12:23 AM BST
Moon 2:18 AM BST (5/19) 12:38 PM BST (5/19)
Length of Visible Light 17h 22m
Length of Day
15h 55m
Last Quarter, 45% of the Moon is Illuminated
May 19
Last Quarter
May 25
New
Jun 1
First Quarter
Jun 9
Full
Jun 17
Last Quarter

Hourly Weather History & Observations

Time (BST) Temp. Dew Point Humidity Pressure Visibility Wind Dir Wind Speed Gust Speed Precip Events Conditions
7:20 AM 50.0 °F 48.2 °F 94% 29.80 in 6.2 mi NW 8.1 mph - N/A   Scattered Clouds
7:50 AM 50.0 °F 48.2 °F 94% 29.80 in 6.2 mi NW 9.2 mph - N/A   Scattered Clouds
8:20 AM 51.8 °F 48.2 °F 88% 29.80 in 6.2 mi NW 10.4 mph - N/A   Scattered Clouds
8:50 AM 51.8 °F 48.2 °F 88% 29.83 in 6.2 mi NW 9.2 mph - N/A   Scattered Clouds
9:20 AM 50.0 °F 46.4 °F 87% 29.83 in 6.2 mi NNW 8.1 mph - N/A Rain Light Rain
9:50 AM 48.2 °F 46.4 °F 93% 29.83 in 6.2 mi NW 6.9 mph - N/A   Drizzle
10:20 AM 50.0 °F 48.2 °F 94% 29.83 in 6.2 mi NW 5.8 mph - N/A   Scattered Clouds
10:50 AM 51.8 °F 46.4 °F 82% 29.83 in 6.2 mi WNW 8.1 mph - N/A   Mostly Cloudy
11:20 AM 51.8 °F 46.4 °F 82% 29.86 in 6.2 mi WNW 8.1 mph - N/A   Mostly Cloudy
11:50 AM 51.8 °F 48.2 °F 88% 29.86 in 5.6 mi NW 6.9 mph - N/A   Mostly Cloudy
12:20 PM 51.8 °F 46.4 °F 82% 29.86 in 6.2 mi NW 8.1 mph - N/A   Mostly Cloudy
12:50 PM 51.8 °F 48.2 °F 88% 29.86 in 6.2 mi West 10.4 mph - N/A   Mostly Cloudy
1:20 PM 53.6 °F 46.4 °F 77% 29.86 in 6.2 mi West 10.4 mph - N/A   Mostly Cloudy
1:50 PM 53.6 °F 44.6 °F 72% 29.86 in 6.2 mi WNW 13.8 mph - N/A   Scattered Clouds
2:20 PM 53.6 °F 44.6 °F 72% 29.89 in 6.2 mi West 11.5 mph - N/A   Scattered Clouds
2:50 PM 53.6 °F 46.4 °F 77% 29.89 in 6.2 mi WNW 9.2 mph - N/A   Scattered Clouds
3:20 PM 53.6 °F 46.4 °F 77% 29.89 in 6.2 mi West 10.4 mph - N/A   Scattered Clouds
3:50 PM 53.6 °F 46.4 °F 77% 29.89 in 6.2 mi West 8.1 mph - N/A   Scattered Clouds
4:20 PM 53.6 °F 46.4 °F 77% 29.89 in 6.2 mi WSW 10.4 mph - N/A   Scattered Clouds
4:50 PM 53.6 °F 48.2 °F 82% 29.89 in 6.2 mi WSW 9.2 mph - N/A   Scattered Clouds
5:20 PM 53.6 °F 46.4 °F 77% 29.89 in 6.2 mi WSW 8.1 mph - N/A   Scattered Clouds
5:50 PM 53.6 °F 46.4 °F 77% 29.89 in 6.2 mi WSW 6.9 mph - N/A   Scattered Clouds